Date String (YYYY-MM-DD hh:mm:ss) UTC,Instrument flags,Ambient pressure (hPa),Sample flow (lpm),Bypass flow (lpm),Sample temperature (°C),Ambient temperature (°C),ASC tube jacket temperature (°C),LED temperature (°C),Box temperature (°C),Sample RH (%),Span deviation,Mass concentration (μg/m³),Mass concentration (μg/m³),Mass concentration (μg/m³)
DateTimeUTC,F1_M11,P_M11,Q1_M11,Q2_M11,T1_M11,T2_M11,T3_M11,T4_M11,T5_M11,U1_M11,ZSPAN_M11,X2_M11,X0_M11,X1_M11
2022-06-28 06:00:00,,0834.1,4.99,0.00,29.5,28.3,00.0,38.4,31.4,20.9,0000.0,0003.04,0006.08,0002.31
2022-06-28 06:01:00,,0834.1,5.01,0.00,29.5,28.4,00.0,38.4,31.4,20.9,0000.0,0003.09,0006.87,0002.32
2022-06-28 06:02:00,,0834.2,5.00,0.00,29.5,28.4,00.0,38.4,31.4,20.9,0000.0,0003.06,0006.95,0002.33
2022-06-28 06:03:00,,0834.2,5.00,0.00,29.6,28.5,00.0,38.4,31.4,20.9,0000.0,0003.02,0006.75,0002.33
2022-06-28 06:04:00,,0834.2,5.00,0.00,29.6,28.5,00.0,38.4,31.5,21.0,0000.0,0002.98,0006.65,0002.33
2022-06-28 06:05:00,,0834.2,5.00,0.00,29.6,28.5,00.0,38.4,31.5,21.1,0000.0,0002.91,0006.37,0002.33
2022-06-28 06:06:00,,0834.2,5.00,0.00,29.6,28.6,00.0,38.4,31.5,21.1,0000.0,0002.96,0006.28,0002.34
2022-06-28 06:07:00,,0834.3,5.00,0.00,29.6,28.6,00.0,38.4,31.5,21.1,0000.0,0002.98,0006.04,0002.36
2022-06-28 06:08:00,,0834.3,5.00,0.00,29.6,28.6,00.0,38.4,31.5,21.0,0000.0,0003.01,0006.54,0002.37
2022-06-28 06:09:00,,0834.3,5.00,0.00,29.6,28.6,00.0,38.4,31.5,21.0,0000.0,0003.12,0008.11,0002.39
2022-06-28 06:10:00,,0834.3,5.00,0.00,29.7,28.7,00.0,38.5,31.5,21.0,0000.0,0003.17,0008.37,0002.41
2022-06-28 06:11:00,,0834.3,4.98,0.00,29.7,28.7,00.0,38.5,31.6,21.0,0000.0,0003.19,0008.26,0002.43
2022-06-28 06:12:00,,0834.2,5.00,0.00,29.7,28.7,00.0,38.5,31.6,21.0,0000.0,0003.15,0007.93,0002.43
2022-06-28 06:13:00,,0834.2,5.01,0.00,29.7,28.7,00.0,38.5,31.6,20.9,0000.0,0003.17,0007.77,0002.42
2022-06-28 06:14:00,,0834.1,5.00,0.00,29.7,28.7,00.0,38.5,31.6,20.8,0000.0,0003.17,0007.78,0002.41
2022-06-28 06:15:00,,0834.1,4.98,0.00,29.7,28.8,00.0,38.5,31.6,20.8,0000.0,0003.18,0007.82,0002.40
2022-06-28 06:16:00,,0834.1,5.01,0.00,29.8,28.8,00.0,38.5,31.7,20.7,0000.0,0003.22,0008.23,0002.40
2022-06-28 06:17:00,,0834.1,5.00,0.00,29.8,28.8,00.0,38.5,31.7,20.7,0000.0,0003.24,0008.48,0002.38
2022-06-28 06:18:00,,0834.1,5.00,0.00,29.8,28.8,00.0,38.6,31.7,20.6,0000.0,0003.22,0008.46,0002.35
2022-06-28 06:19:00,,0834.1,5.00,0.00,29.8,28.8,00.0,38.6,31.7,20.6,0000.0,0003.22,0008.45,0002.34
2022-06-28 06:20:00,,0834.1,4.98,0.00,29.8,28.8,00.0,38.6,31.7,20.7,0000.0,0003.18,0006.99,0002.32
2022-06-28 06:21:00,,0834.1,5.01,0.00,29.8,28.8,00.0,38.6,31.7,20.4,0000.0,0003.17,0006.43,0002.30
2022-06-28 06:22:00,,0834.1,5.00,0.00,29.8,28.9,00.0,38.6,31.7,20.0,0000.0,0003.16,0006.68,0002.28
2022-06-28 06:23:00,,0834.1,5.00,0.00,29.8,28.9,00.0,38.6,31.7,19.9,0000.0,0003.14,0007.04,0002.25
2022-06-28 06:24:00,,0834.1,4.99,0.00,29.8,28.9,00.0,38.6,31.7,19.9,0000.0,0003.14,0006.93,0002.25
2022-06-28 06:25:00,,0834.2,5.01,0.00,29.8,28.9,00.0,38.6,31.7,19.9,0000.0,0003.12,0006.81,0002.24
2022-06-28 06:26:00,,0834.2,5.00,0.00,29.8,28.9,00.0,38.6,31.7,19.9,0000.0,0003.12,0006.81,0002.24
2022-06-28 06:27:00,,0834.2,5.00,0.00,29.8,28.9,00.0,38.7,31.7,19.9,0000.0,0003.08,0007.19,0002.24
2022-06-28 06:28:00,,0834.2,5.01,0.00,29.8,28.9,00.0,38.7,31.7,19.8,0000.0,0003.03,0006.64,0002.24
2022-06-28 06:29:00,,0834.2,5.01,0.00,29.9,28.9,00.0,38.7,31.7,19.5,0000.0,0003.01,0006.57,0002.24
2022-06-28 06:30:00,,0834.1,4.99,0.00,29.9,28.9,00.0,38.7,31.7,19.3,0000.0,0003.02,0006.51,0002.24
2022-06-28 06:31:00,,0834.1,5.00,0.00,29.9,28.9,00.0,38.7,31.7,19.4,0000.0,0002.97,0006.37,0002.24
2022-06-28 06:32:00,,0834.1,5.01,0.00,29.9,28.9,00.0,38.7,31.7,19.3,0000.0,0002.90,0006.13,0002.24
2022-06-28 06:33:00,,0834.1,4.99,0.00,29.9,28.9,00.0,38.7,31.8,19.4,0000.0,0002.85,0005.67,0002.24
2022-06-28 06:34:00,,0834.1,5.01,0.00,29.9,28.9,00.0,38.7,31.7,19.3,0000.0,0002.87,0005.18,0002.26
2022-06-28 06:35:00,,0834.1,5.00,0.00,29.9,28.9,00.0,38.7,31.8,19.4,0000.0,0002.82,0005.03,0002.26
2022-06-28 06:36:00,,0834.1,5.00,0.00,29.9,28.9,00.0,38.7,31.7,19.4,0000.0,0002.85,0005.09,0002.28
2022-06-28 06:37:00,,0834.1,5.01,0.00,29.9,28.9,00.0,38.7,31.7,19.4,0000.0,0002.88,0005.17,0002.30
2022-06-28 06:38:00,,0834.1,5.00,0.00,29.9,28.9,00.0,38.7,31.8,19.5,0000.0,0002.91,0004.26,0002.31
2022-06-28 06:39:00,,0834.1,5.00,0.00,29.9,28.9,00.0,38.7,31.7,19.5,0000.0,0002.92,0004.47,0002.33
2022-06-28 06:40:00,,0834.1,5.00,0.00,29.9,28.9,00.0,38.7,31.7,19.5,0000.0,0002.98,0004.93,0002.35
2022-06-28 06:41:00,,0834.1,4.99,0.00,29.9,28.9,00.0,38.7,31.7,19.6,0000.0,0003.03,0005.05,0002.36
2022-06-28 06:42:00,,0834.0,5.00,0.00,29.9,28.9,00.0,38.7,31.7,19.5,0000.0,0003.10,0005.22,0002.37
2022-06-28 06:43:00,,0834.1,5.01,0.00,29.9,28.9,00.0,38.8,31.7,19.5,0000.0,0003.13,0005.32,0002.39
2022-06-28 06:44:00,,0834.1,4.98,0.00,29.9,28.9,00.0,38.8,31.8,19.4,0000.0,0003.17,0005.49,0002.44
2022-06-28 06:45:00,,0834.1,5.00,0.00,29.9,28.9,00.0,38.8,31.8,19.4,0000.0,0003.17,0005.45,0002.48
2022-06-28 06:46:00,,0834.0,5.00,0.00,29.9,28.9,00.0,38.8,31.8,19.4,0000.0,0003.21,0005.65,0002.52
2022-06-28 06:47:00,,0833.9,4.99,0.00,30.0,28.9,00.0,38.8,31.8,19.4,0000.0,0003.24,0005.78,0002.56
2022-06-28 06:48:00,,0834.0,5.00,0.00,29.9,28.3,00.0,38.7,31.6,19.4,0000.0,0003.26,0005.85,0002.60
2022-06-28 06:49:00,,0834.0,5.01,0.00,29.8,27.5,00.0,38.6,31.4,19.4,0000.0,0003.29,0006.11,0002.64
2022-06-28 06:50:00,,0833.9,5.01,0.00,29.7,27.3,00.0,38.6,31.3,19.3,0000.0,0003.30,0006.39,0002.67
2022-06-28 06:51:00,,0833.9,5.00,0.00,29.7,27.2,00.0,38.6,31.2,19.4,0000.0,0003.28,0006.37,0002.69
2022-06-28 06:52:00,,0833.9,5.00,0.00,29.6,27.3,00.0,38.5,31.2,19.4,0000.0,0003.25,0006.19,0002.72
2022-06-28 06:53:00,,0833.9,5.01,0.00,29.6,27.4,00.0,38.5,31.2,19.4,0000.0,0003.27,0006.22,0002.76
2022-06-28 06:54:00,,0833.9,5.00,0.00,29.5,27.6,00.0,38.5,31.2,19.4,0000.0,0003.28,0006.38,0002.79
2022-06-28 06:55:00,,0833.9,4.99,0.00,29.5,27.7,00.0,38.5,31.3,19.4,0000.0,0003.27,0006.63,0002.79
2022-06-28 06:56:00,,0833.9,5.00,0.00,29.5,27.8,00.0,38.5,31.3,19.3,0000.0,0003.28,0006.95,0002.79
2022-06-28 06:57:00,,0833.8,5.01,0.00,29.5,27.9,00.0,38.4,31.3,19.3,0000.0,0003.28,0007.63,0002.78
2022-06-28 06:58:00,,0833.9,5.00,0.00,29.5,28.0,00.0,38.4,31.3,19.3,0000.0,0003.26,0007.58,0002.78
2022-06-28 06:59:00,,0833.9,4.99,0.00,29.5,28.1,00.0,38.4,31.3,19.2,0000.0,0003.25,0007.53,0002.77
